| time (UTC) | temp C | wind direction | speed KPH | gust KPH | rain 1hr cm | rain 24hr cm | rain mn cm | humidity % | barometer mb |
| 20260507004531 | 30 | 344 | 11.3 | 19.3 | 0.00 | 0.00 | 0.00 | 18 | 950.0 |
| 20260507003030 | 30 | 315 | 4.8 | 14.5 | 0.00 | 0.00 | 0.00 | 17 | 950.0 |
| 20260507001531 | 30 | 14.5 | 22.5 | 0.00 | 0.00 | 0.00 | 17 | 950.0 | |
| 20260507000029 | 30 | 344 | 14.5 | 27.4 | 0.00 | 0.00 | 0.00 | 17 | 950.0 |
| 20260506234533 | 30 | 319 | 20.9 | 29.0 | 0.00 | 0.00 | 0.00 | 17 | 949.9 |
| 20260506233026 | 30 | 19.3 | 27.4 | 0.00 | 0.00 | 0.00 | 17 | 950.2 | |
| 20260506231524 | 30 | 8.0 | 25.7 | 0.00 | 0.00 | 0.00 | 19 | 950.3 | |
| 20260506230021 | 30 | 291 | 11.3 | 22.5 | 0.00 | 0.00 | 0.00 | 20 | 950.4 |
| 20260506224525 | 30 | 316 | 12.9 | 20.9 | 0.00 | 0.00 | 0.00 | 20 | 950.7 |
| 20260506223017 | 29 | 306 | 17.7 | 27.4 | 0.00 | 0.00 | 0.00 | 20 | 951.0 |
| 20260506221516 | 28 | 274 | 12.9 | 22.5 | 0.00 | 0.00 | 0.00 | 22 | 951.2 |
| 20260506220015 | 29 | 331 | 12.9 | 20.9 | 0.00 | 0.00 | 0.00 | 22 | 951.5 |
| 20260506214513 | 28 | 287 | 4.8 | 16.1 | 0.00 | 0.00 | 0.00 | 21 | 951.7 |
| 20260506213019 | 28 | 149 | 6.4 | 20.9 | 0.00 | 0.00 | 0.00 | 22 | 952.0 |
| 20260506211513 | 28 | 13 | 3.2 | 16.1 | 0.00 | 0.00 | 0.00 | 22 | 952.2 |
| 20260506210010 | 28 | 145 | 0.0 | 14.5 | 0.00 | 0.00 | 0.00 | 22 | 952.4 |
| 20260506204506 | 27 | 295 | 0.0 | 9.7 | 0.00 | 0.00 | 0.00 | 23 | 952.6 |
| 20260506203004 | 27 | 139 | 6.4 | 16.1 | 0.00 | 0.00 | 0.00 | 24 | 952.7 |
| 20260506201503 | 26 | 238 | 3.2 | 20.9 | 0.00 | 0.00 | 0.00 | 24 | 952.8 |
| 20260506200003 | 26 | 245 | 9.7 | 17.7 | 0.00 | 0.00 | 0.00 | 25 | 953.0 |
| 20260506194600 | 26 | 205 | 6.4 | 16.1 | 0.00 | 0.00 | 0.00 | 25 | 953.3 |
| 20260506193058 | 26 | 219 | 12.9 | 24.1 | 0.00 | 0.00 | 0.00 | 26 | 953.3 |
| 20260506191604 | 26 | 245 | 14.5 | 22.5 | 0.00 | 0.00 | 0.00 | 27 | 953.5 |
| 20260506190058 | 25 | 239 | 3.2 | 19.3 | 0.00 | 0.00 | 0.00 | 28 | 953.7 |
| 20260506184600 | 25 | 231 | 4.8 | 19.3 | 0.00 | 0.00 | 0.00 | 28 | 953.8 |
| 20260506183058 | 24 | 200 | 9.7 | 22.5 | 0.00 | 0.00 | 0.00 | 29 | 954.1 |
| 20260506181556 | 24 | 231 | 6.4 | 27.4 | 0.00 | 0.00 | 0.00 | 29 | 954.2 |
| 20260506180051 | 23 | 175 | 3.2 | 19.3 | 0.00 | 0.00 | 0.00 | 31 | 954.3 |
| 20260506174604 | 23 | 255 | 4.8 | 16.1 | 0.00 | 0.00 | 0.00 | 31 | 954.4 |
| 20260506173053 | 22 | 276 | 1.6 | 16.1 | 0.00 | 0.00 | 0.00 | 33 | 954.4 |
| 20260506171543 | 22 | 8.0 | 16.1 | 0.00 | 0.00 | 0.00 | 33 | 954.4 | |
| 20260506170040 | 21 | 240 | 3.2 | 16.1 | 0.00 | 0.00 | 0.00 | 33 | 954.4 |
| 20260506164545 | 21 | 236 | 0.0 | 14.5 | 0.00 | 0.00 | 0.00 | 34 | 954.4 |
| 20260506163054 | 20 | 210 | 1.6 | 9.7 | 0.00 | 0.00 | 0.00 | 34 | 954.5 |
| 20260506161533 | 20 | 3.2 | 11.3 | 0.00 | 0.00 | 0.00 | 35 | 954.4 | |
| 20260506160030 | 19 | 158 | 3.2 | 11.3 | 0.00 | 0.00 | 0.00 | 36 | 954.4 |
| 20260506154535 | 19 | 195 | 0.0 | 6.4 | 0.00 | 0.00 | 0.00 | 36 | 954.3 |
| 20260506153031 | 18 | 273 | 0.0 | 4.8 | 0.00 | 0.00 | 0.00 | 37 | 954.3 |
| 20260506151533 | 18 | 217 | 0.0 | 0.0 | 0.00 | 0.00 | 0.00 | 39 | 954.2 |
| 20260506150024 | 17 | 285 | 0.0 | 0.0 | 0.00 | 0.00 | 0.00 | 39 | 954.0 |
| 20260506144522 | 17 | 243 | 0.0 | 1.6 | 0.00 | 0.00 | 0.00 | 39 | 954.0 |
| 20260506143019 | 17 | 221 | 0.0 | 1.6 | 0.00 | 0.00 | 0.00 | 40 | 953.8 |
| 20260506141517 | 17 | 210 | 0.0 | 1.6 | 0.00 | 0.00 | 0.00 | 40 | 953.7 |
| 20260506140022 | 17 | 155 | 0.0 | 0.0 | 0.00 | 0.00 | 0.00 | 39 | 953.6 |
| 20260506134514 | 17 | 143 | 0.0 | 0.0 | 0.00 | 0.00 | 0.00 | 40 | 953.4 |
| 20260506133013 | 16 | 122 | 0.0 | 1.6 | 0.00 | 0.00 | 0.00 | 41 | 953.3 |
| 20260506131517 | 16 | 101 | 0.0 | 1.6 | 0.00 | 0.00 | 0.00 | 42 | 953.2 |
| 20260506130010 | 16 | 116 | 0.0 | 0.0 | 0.00 | 0.00 | 0.00 | 42 | 952.9 |
| 20260506124507 | 16 | 101 | 0.0 | 0.0 | 0.00 | 0.00 | 0.00 | 42 | 952.8 |
| 20260506123008 | 16 | 101 | 0.0 | 0.0 | 0.00 | 0.00 | 0.00 | 42 | 952.6 |
| 20260506121505 | 16 | 112 | 0.0 | 1.6 | 0.00 | 0.00 | 0.00 | 42 | 952.5 |
| 20260506120002 | 16 | 116 | 0.0 | 1.6 | 0.00 | 0.00 | 0.00 | 42 | 952.4 |
| 20260506114501 | 16 | 145 | 0.0 | 1.6 | 0.00 | 0.00 | 0.00 | 42 | 952.4 |
| 20260506113100 | 16 | 112 | 0.0 | 0.0 | 0.00 | 0.00 | 0.00 | 42 | 952.3 |
| 20260506111600 | 16 | 243 | 0.0 | 0.0 | 0.00 | 0.00 | 0.00 | 42 | 952.2 |
| 20260506104551 | 16 | 116 | 0.0 | 0.0 | 0.00 | 0.00 | 0.00 | 41 | 951.8 |
| 20260506103048 | 16 | 134 | 0.0 | 0.0 | 0.00 | 0.00 | 0.00 | 41 | 951.7 |
| 20260506101554 | 17 | 159 | 0.0 | 0.0 | 0.00 | 0.00 | 0.00 | 40 | 951.6 |
| 20260506100044 | 17 | 243 | 0.0 | 0.0 | 0.00 | 0.00 | 0.00 | 40 | 951.6 |
| 20260506094542 | 17 | 277 | 0.0 | 1.6 | 0.00 | 0.00 | 0.00 | 39 | 951.4 |
| 20260506093042 | 17 | 240 | 0.0 | 0.0 | 0.00 | 0.00 | 0.00 | 37 | 951.4 |
| 20260506091538 | 18 | 198 | 0.0 | 0.0 | 0.00 | 0.00 | 0.00 | 37 | 951.3 |
| 20260506090037 | 18 | 139 | 0.0 | 1.6 | 0.00 | 0.00 | 0.00 | 37 | 951.3 |
| 20260506084543 | 18 | 82 | 0.0 | 0.0 | 0.00 | 0.00 | 0.00 | 37 | 951.3 |
| 20260506083035 | 18 | 82 | 0.0 | 0.0 | 0.00 | 0.00 | 0.00 | 36 | 951.3 |
| 20260506081540 | 18 | 84 | 0.0 | 0.0 | 0.00 | 0.00 | 0.00 | 36 | 951.3 |
| 20260506073025 | 19 | 262 | 0.0 | 0.0 | 0.00 | 0.00 | 0.00 | 33 | 951.1 |
| 20260506071522 | 19 | 250 | 0.0 | 0.0 | 0.00 | 0.00 | 0.00 | 32 | 950.9 |
| 20260506061515 | 20 | 117 | 0.0 | 6.4 | 0.00 | 0.00 | 0.00 | 29 | 950.4 |
| 20260506044513 | 22 | 147 | 8.0 | 16.1 | 0.00 | 0.00 | 0.00 | 27 | 949.5 |
| 20260506043004 | 22 | 118 | 8.0 | 16.1 | 0.00 | 0.00 | 0.00 | 26 | 949.4 |
| 20260506041504 | 22 | 145 | 11.3 | 17.7 | 0.00 | 0.00 | 0.00 | 26 | 949.2 |
| 20260506040003 | 22 | 155 | 6.4 | 12.9 | 0.00 | 0.00 | 0.00 | 25 | 949.0 |
| 20260506034504 | 22 | 134 | 4.8 | 12.9 | 0.00 | 0.00 | 0.00 | 25 | 948.8 |
| 20260506033002 | 22 | 141 | 4.8 | 11.3 | 0.00 | 0.00 | 0.00 | 25 | 948.6 |
| 20260506031603 | 22 | 146 | 6.4 | 14.5 | 0.00 | 0.00 | 0.00 | 25 | 948.5 |
| 20260506030059 | 22 | 152 | 1.6 | 12.9 | 0.00 | 0.00 | 0.00 | 25 | 948.3 |
| 20260506024608 | 23 | 169 | 4.8 | 14.5 | 0.00 | 0.00 | 0.00 | 25 | 948.0 |
| 20260506023111 | 23 | 168 | 9.7 | 14.5 | 0.00 | 0.00 | 0.00 | 24 | 947.9 |
| 20260506021557 | 23 | 198 | 3.2 | 14.5 | 0.00 | 0.00 | 0.00 | 24 | 947.6 |
| 20260506020058 | 23 | 210 | 6.4 | 12.9 | 0.00 | 0.00 | 0.00 | 24 | 947.5 |
| 20260506014557 | 24 | 186 | 6.4 | 12.9 | 0.00 | 0.00 | 0.00 | 23 | 947.3 |
| 20260506013103 | 24 | 197 | 6.4 | 16.1 | 0.00 | 0.00 | 0.00 | 23 | 947.2 |
| 20260506011604 | 25 | 12.9 | 29.0 | 0.00 | 0.00 | 0.00 | 23 | 947.2 | |
| 20260506010055 | 24 | 6.4 | 19.3 | 0.00 | 0.00 | 0.00 | 23 | 947.1 |